Weather History for KLTS - October, 2012

Change the Weather History Date:

Sunday, October 14, 2012

  Actual Average Record
Temperature  
Mean Temperature 68 °F -  
Max Temperature 81 °F 74 °F 87 °F (1998)
Min Temperature 55 °F 50 °F 42 °F (1997)
Cooling Degree Days 2    
Growing Degree Days 18 (Base 50)    
Moisture  
Dew Point 47 °F    
Average Humidity 54    
Maximum Humidity 82    
Minimum Humidity 24    
Precipitation  
Precipitation 0.00 in - - ()
Sea Level Pressure  
Sea Level Pressure 30.06 in    
Wind  
Wind Speed 8 mph (NNW)    
Max Wind Speed 18 mph    
Max Gust Speed 24 mph    
Visibility 6 miles    
Events      
Averages and records for this station are not official NWS values.
T = Trace of Precipitation, MM = Missing Value Source: NWS Daily Summary

Daily Weather History Graph

Daily Weather History Graph

Search for Another Location

Airport or City:

Trip Planner

Search our weather history database for the weather conditions in past years. The results will help you decide how hot, cold, wet, or windy it might be!

Date:

Astronomy

Oct. 14, 2012 Rise Set
Actual Time 7:42 AM CDT 7:02 PM CDT
Civil Twilight 7:16 AM CDT 7:28 PM CDT
Nautical Twilight 6:47 AM CDT 7:57 PM CDT
Astronomical Twilight 6:18 AM CDT 8:26 PM CDT
Moon 6:43 AM CDT (10/14) 6:24 PM CDT (10/14)
Length of Visible Light 12h 11m
Length of Day
11h 20m
Waning Crescent, 1% of the Moon is Illuminated
Oct 14
Waning Crescent
Oct 15
New
Oct 21
First Quarter
Oct 29
Full
Nov 6
Last Quarter

Hourly Weather History & Observations

Time (CDT) Temp. Dew Point Humidity Pressure Visibility Wind Dir Wind Speed Gust Speed Precip Events Conditions
12:55 AM 63.0 °F 40.6 °F 44% 29.85 in 10.0 mi West 11.5 mph - N/A   Clear
1:55 AM 62.6 °F 41.7 °F 46% 29.86 in 10.0 mi West 13.8 mph - N/A   Clear
2:55 AM 63.0 °F 43.2 °F 48% 29.88 in 10.0 mi West 10.4 mph - N/A   Clear
3:55 AM 59.9 °F 44.4 °F 57% 29.89 in 10.0 mi WNW 10.4 mph - N/A   Clear
4:55 AM 58.1 °F 45.5 °F 63% 29.89 in 10.0 mi West 11.5 mph - N/A   Clear
5:55 AM 57.6 °F 45.7 °F 65% 29.92 in 10.0 mi WNW 8.1 mph - N/A   Clear
6:55 AM 56.5 °F 46.2 °F 68% 29.97 in 10.0 mi WNW 5.8 mph - N/A   Clear
7:55 AM 57.0 °F 45.7 °F 66% 30.01 in 10.0 mi West 10.4 mph - N/A   Clear
8:55 AM 59.9 °F 46.4 °F 61% 30.05 in 10.0 mi WNW 11.5 mph - N/A   Clear
9:55 AM 64.9 °F 46.9 °F 52% 30.08 in 10.0 mi NW 13.8 mph - N/A   Clear
10:55 AM 71.6 °F 46.0 °F 40% 30.10 in 10.0 mi NNW 11.5 mph - N/A   Clear
11:55 AM 76.6 °F 43.0 °F 30% 30.11 in 10.0 mi North 18.4 mph 24.2 mph N/A   Clear
12:55 PM 78.3 °F 42.1 °F 27% 30.11 in 10.0 mi North 16.1 mph - N/A   Clear
1:55 PM 80.1 °F 42.3 °F 26% 30.09 in 10.0 mi NNW 11.5 mph - N/A   Clear
2:55 PM 80.8 °F 41.9 °F 25% 30.07 in 10.0 mi North 16.1 mph - N/A   Clear
3:55 PM 80.6 °F 40.8 °F 24% 30.06 in 10.0 mi North 8.1 mph - N/A   Clear
4:22 PM 80.6 °F 42.8 °F 26% 30.06 in 2.5 mi NNW 6.9 mph - N/A   Haze
4:32 PM 80.6 °F 41.0 °F 24% 30.05 in 3.0 mi NW 10.4 mph - N/A   Haze
4:55 PM 80.4 °F 41.5 °F 25% 30.05 in 10.0 mi Variable 3.5 mph - N/A   Clear
5:55 PM 79.2 °F 44.1 °F 29% 30.05 in 10.0 mi NNW 10.4 mph - N/A   Clear
6:55 PM 73.0 °F 47.3 °F 40% 30.06 in 3.0 mi NNW 5.8 mph - N/A   Haze
6:57 PM 71.6 °F 48.2 °F 43% 30.06 in 2.5 mi North 5.8 mph - N/A   Haze
7:14 PM 69.8 °F 50.0 °F 49% 30.07 in 3.0 mi North 4.6 mph - N/A   Haze
7:23 PM 69.8 °F 48.2 °F 46% 30.07 in 5.0 mi North 3.5 mph - N/A   Haze
7:31 PM 69.8 °F 48.2 °F 46% 30.06 in 5.0 mi North 4.6 mph - N/A   Haze
7:48 PM 66.2 °F 51.8 °F 60% 30.07 in 5.0 mi NNE 3.5 mph - N/A   Haze
7:55 PM 64.9 °F 52.0 °F 63% 30.07 in 4.0 mi NE 3.5 mph - N/A   Haze
8:06 PM 62.6 °F 50.0 °F 63% 30.07 in 4.0 mi NNE 4.6 mph - N/A   Haze
8:31 PM 64.4 °F 48.2 °F 56% 30.08 in 2.5 mi Calm Calm - N/A   Haze
8:35 PM 64.4 °F 48.2 °F 56% 30.08 in 2.5 mi Calm Calm - N/A   Haze
8:55 PM 62.4 °F 50.0 °F 64% 30.09 in 2.5 mi NE 3.5 mph - N/A   Haze
8:57 PM 60.8 °F 51.8 °F 72% 30.09 in 3.0 mi NE 3.5 mph - N/A   Haze
9:02 PM 60.8 °F 51.8 °F 72% 30.09 in 4.0 mi NE 5.8 mph - N/A   Haze
9:20 PM 60.8 °F 50.0 °F 68% 30.09 in 4.0 mi NNE 5.8 mph - N/A   Haze
9:35 PM 62.6 °F 48.2 °F 59% 30.09 in 4.0 mi NNE 4.6 mph - N/A   Haze
9:55 PM 60.6 °F 48.6 °F 64% 30.10 in 5.0 mi NNE 5.8 mph - N/A   Haze
9:56 PM 59.0 °F 48.2 °F 67% 30.10 in 4.0 mi NNE 5.8 mph - N/A   Haze
10:41 PM 59.0 °F 48.2 °F 67% 30.11 in 4.0 mi NE 3.5 mph - N/A   Haze
10:55 PM 59.5 °F 49.1 °F 68% 30.11 in 4.0 mi Calm Calm - N/A   Haze
10:56 PM 59.0 °F 50.0 °F 72% 30.11 in 2.5 mi Calm Calm - N/A   Haze
11:03 PM 59.0 °F 48.2 °F 67% 30.11 in 5.0 mi Calm Calm - N/A   Haze
11:08 PM 59.0 °F 48.2 °F 67% 30.11 in 5.0 mi Calm Calm - N/A   Haze
11:17 PM 60.8 °F 48.2 °F 63% 30.11 in 2.5 mi Calm Calm - N/A   Haze
11:20 PM 60.8 °F 48.2 °F 63% 30.11 in 1.8 mi Calm Calm - N/A   Haze
11:30 PM 62.6 °F 46.4 °F 55% 30.11 in 1.5 mi Calm Calm - N/A   Haze
11:33 PM 62.6 °F 46.4 °F 55% 30.11 in 1.8 mi Calm Calm - N/A   Haze
11:34 PM 60.8 °F 46.4 °F 59% 30.11 in 2.0 mi Calm Calm - N/A   Haze
11:37 PM 60.8 °F 48.2 °F 63% 30.11 in 3.0 mi Calm Calm - N/A   Haze
11:47 PM 55.4 °F 48.2 °F 77% 30.12 in 3.0 mi Calm Calm - N/A   Haze
11:55 PM 55.6 °F 48.9 °F 78% 30.11 in 4.0 mi Calm Calm - N/A   Haze
11:57 PM 55.4 °F 50.0 °F 82% 30.11 in 5.0 mi Calm Calm - N/A   Haze